TimeEST,TemperatureF,Dew PointF,Humidity,Sea Level PressureIn,VisibilityMPH,Wind Direction,Wind SpeedMPH,Gust SpeedMPH,PrecipitationIn,Events,Conditions,WindDirDegrees,DateUTC
12:15 AM,19.8,10.0,66,30.32,10.0,WNW,9.2,16.1,N/A,,Overcast,290,2013-12-07 05:15:00
12:35 AM,19.4,9.5,65,30.32,10.0,WNW,9.2,-,N/A,,Overcast,290,2013-12-07 05:35:00
12:54 AM,19.4,9.9,66,30.32,10.0,West,8.1,-,N/A,Snow,Light Snow,280,2013-12-07 05:54:00
1:15 AM,19.4,10.2,68,30.32,10.0,WNW,11.5,-,N/A,Snow,Light Snow,290,2013-12-07 06:15:00
1:35 AM,19.6,10.9,69,30.32,10.0,West,10.4,17.3,N/A,Snow,Light Snow,270,2013-12-07 06:35:00
1:54 AM,19.4,10.4,68,30.32,10.0,West,8.1,18.4,N/A,,Overcast,270,2013-12-07 06:54:00
2:15 AM,19.8,11.1,69,30.33,10.0,WNW,12.7,20.7,N/A,Snow,Light Snow,290,2013-12-07 07:15:00
2:35 AM,19.4,10.8,69,30.33,10.0,West,11.5,16.1,N/A,Snow,Light Snow,280,2013-12-07 07:35:00
2:54 AM,19.8,11.5,70,30.34,10.0,WNW,10.4,-,N/A,Snow,Light Snow,290,2013-12-07 07:54:00
3:15 AM,19.4,11.3,71,30.34,10.0,West,11.5,20.7,N/A,Snow,Light Snow,280,2013-12-07 08:15:00
3:35 AM,19.0,11.3,72,30.35,7.0,West,11.5,-,N/A,Snow,Light Snow,280,2013-12-07 08:35:00
3:54 AM,18.9,11.3,72,30.35,7.0,West,11.5,-,N/A,Snow,Light Snow,280,2013-12-07 08:54:00
4:15 AM,18.5,11.1,73,30.36,5.0,West,13.8,20.7,N/A,Snow,Light Snow,270,2013-12-07 09:15:00
4:35 AM,18.5,10.8,72,30.37,10.0,West,13.8,20.7,N/A,Snow,Light Snow,270,2013-12-07 09:35:00
4:54 AM,18.7,9.7,68,30.37,10.0,West,10.4,18.4,N/A,,Overcast,270,2013-12-07 09:54:00
5:15 AM,18.5,10.8,72,30.38,7.0,West,10.4,17.3,N/A,Snow,Light Snow,280,2013-12-07 10:15:00
5:35 AM,18.5,10.2,70,30.38,10.0,West,11.5,17.3,N/A,,Overcast,270,2013-12-07 10:35:00
5:54 AM,18.5,9.9,69,30.39,10.0,West,13.8,18.4,N/A,,Overcast,280,2013-12-07 10:54:00
6:15 AM,18.5,9.9,69,30.39,10.0,WNW,17.3,24.2,N/A,Snow,Light Snow,290,2013-12-07 11:15:00
6:35 AM,18.5,9.5,68,30.39,10.0,West,10.4,24.2,N/A,,Overcast,280,2013-12-07 11:35:00
6:55 AM,18.5,8.4,65,30.40,10.0,West,13.8,26.5,N/A,,Overcast,270,2013-12-07 11:55:00
7:15 AM,18.5,7.7,63,30.41,10.0,West,11.5,25.3,N/A,,Overcast,270,2013-12-07 12:15:00
7:34 AM,18.5,6.3,59,30.41,10.0,West,15.0,23.0,N/A,,Overcast,280,2013-12-07 12:34:00
7:55 AM,18.5,7.2,61,30.41,10.0,West,16.1,23.0,N/A,,Overcast,270,2013-12-07 12:55:00
8:15 AM,18.5,7.0,61,30.41,10.0,West,11.5,26.5,N/A,,Overcast,270,2013-12-07 13:15:00
8:34 AM,18.5,7.3,62,30.42,10.0,West,15.0,24.2,N/A,,Overcast,280,2013-12-07 13:34:00
8:55 AM,18.5,7.0,61,30.42,10.0,West,12.7,24.2,N/A,,Overcast,280,2013-12-07 13:55:00
9:15 AM,18.5,7.2,61,30.44,10.0,West,15.0,26.5,N/A,,Mostly Cloudy,270,2013-12-07 14:15:00
9:34 AM,18.5,8.2,64,30.44,10.0,West,15.0,21.9,N/A,,Overcast,270,2013-12-07 14:34:00
9:55 AM,18.5,8.1,64,30.45,10.0,West,12.7,21.9,N/A,,Overcast,270,2013-12-07 14:55:00
10:15 AM,18.5,9.0,66,30.45,10.0,West,9.2,25.3,N/A,,Overcast,260,2013-12-07 15:15:00
10:34 AM,18.5,8.8,66,30.46,10.0,West,18.4,24.2,N/A,,Overcast,280,2013-12-07 15:34:00
10:55 AM,18.5,8.6,65,30.47,10.0,West,10.4,20.7,N/A,,Overcast,270,2013-12-07 15:55:00
11:15 AM,18.5,9.1,67,30.47,10.0,West,13.8,21.9,N/A,,Overcast,270,2013-12-07 16:15:00
11:34 AM,18.5,8.6,65,30.47,10.0,West,13.8,20.7,N/A,,Overcast,270,2013-12-07 16:34:00
11:55 AM,18.5,8.4,65,30.48,10.0,West,12.7,23.0,N/A,,Overcast,270,2013-12-07 16:55:00
12:15 PM,18.5,8.4,65,30.47,10.0,West,16.1,25.3,N/A,,Overcast,270,2013-12-07 17:15:00
12:34 PM,18.5,7.9,63,30.48,10.0,West,11.5,24.2,N/A,,Overcast,270,2013-12-07 17:34:00
12:55 PM,18.5,9.5,68,30.47,10.0,West,9.2,23.0,N/A,,Overcast,270,2013-12-07 17:55:00
1:15 PM,18.5,8.6,65,30.48,10.0,West,12.7,26.5,N/A,Snow,Light Snow,260,2013-12-07 18:15:00
1:34 PM,18.5,8.4,65,30.48,10.0,West,16.1,25.3,N/A,,Overcast,270,2013-12-07 18:34:00
1:55 PM,18.5,9.1,67,30.47,10.0,West,9.2,18.4,N/A,,Overcast,270,2013-12-07 18:55:00
2:14 PM,18.5,8.1,64,30.47,10.0,West,12.7,23.0,N/A,,Overcast,260,2013-12-07 19:14:00
2:35 PM,18.5,8.1,64,30.47,10.0,West,13.8,21.9,N/A,,Overcast,270,2013-12-07 19:35:00
2:55 PM,18.5,8.2,64,30.47,10.0,West,11.5,23.0,N/A,,Overcast,270,2013-12-07 19:55:00
3:14 PM,18.5,7.9,63,30.47,10.0,West,13.8,19.6,N/A,,Overcast,270,2013-12-07 20:14:00
3:35 PM,18.5,7.9,63,30.48,10.0,West,12.7,20.7,N/A,,Overcast,270,2013-12-07 20:35:00
3:55 PM,18.5,7.9,63,30.48,10.0,West,12.7,20.7,N/A,,Overcast,270,2013-12-07 20:55:00
4:14 PM,18.5,7.3,62,30.48,10.0,West,9.2,20.7,N/A,,Overcast,270,2013-12-07 21:14:00
4:35 PM,18.5,8.6,65,30.48,10.0,West,15.0,20.7,N/A,,Overcast,280,2013-12-07 21:35:00
4:55 PM,18.5,6.1,58,30.48,10.0,West,10.4,21.9,N/A,,Overcast,270,2013-12-07 21:55:00
5:14 PM,18.5,6.8,60,30.48,10.0,WSW,9.2,19.6,N/A,,Overcast,250,2013-12-07 22:14:00
5:35 PM,18.5,7.3,62,30.48,10.0,West,8.1,21.9,N/A,,Overcast,270,2013-12-07 22:35:00
5:55 PM,18.7,8.1,63,30.48,10.0,West,12.7,21.9,N/A,,Overcast,270,2013-12-07 22:55:00
6:14 PM,18.5,8.2,64,30.49,10.0,West,10.4,20.7,N/A,,Overcast,270,2013-12-07 23:14:00
6:35 PM,19.4,10.0,67,30.49,10.0,West,12.7,21.9,N/A,Snow,Light Snow,260,2013-12-07 23:35:00
6:55 PM,19.6,8.6,62,30.49,10.0,West,11.5,25.3,N/A,,Overcast,260,2013-12-07 23:55:00
7:14 PM,19.6,9.1,64,30.49,10.0,WSW,15.0,24.2,N/A,,Overcast,250,2013-12-08 00:14:00
7:35 PM,18.9,10.8,71,30.49,10.0,SW,11.5,21.9,N/A,,Overcast,220,2013-12-08 00:35:00
7:55 PM,19.4,11.1,70,30.49,10.0,SSW,13.8,21.9,N/A,,Overcast,210,2013-12-08 00:55:00
8:14 PM,19.4,12.0,73,30.48,10.0,SW,13.8,21.9,N/A,,Overcast,220,2013-12-08 01:14:00
8:35 PM,19.4,11.8,72,30.48,10.0,SW,17.3,23.0,N/A,Snow,Light Snow,220,2013-12-08 01:35:00
8:55 PM,19.8,11.7,71,30.48,10.0,SW,13.8,24.2,N/A,,Overcast,220,2013-12-08 01:55:00
9:15 PM,20.1,11.8,70,30.48,10.0,WSW,11.5,21.9,N/A,Snow,Light Snow,240,2013-12-08 02:15:00
9:35 PM,20.1,12.2,71,30.47,10.0,West,12.7,19.6,N/A,,Overcast,260,2013-12-08 02:35:00
9:55 PM,19.9,11.7,70,30.47,10.0,WSW,12.7,21.9,N/A,,Overcast,250,2013-12-08 02:55:00
10:15 PM,20.5,11.5,68,30.47,10.0,WSW,13.8,20.7,N/A,,Overcast,250,2013-12-08 03:15:00
10:35 PM,20.8,11.5,67,30.47,10.0,West,13.8,19.6,N/A,,Overcast,260,2013-12-08 03:35:00
10:55 PM,20.3,10.8,67,30.46,10.0,WSW,15.0,23.0,N/A,,Overcast,240,2013-12-08 03:55:00
11:15 PM,20.7,10.6,65,30.46,10.0,WSW,11.5,18.4,N/A,,Overcast,250,2013-12-08 04:15:00
11:35 PM,20.1,11.8,70,30.46,7.0,West,11.5,18.4,N/A,Snow,Light Snow,270,2013-12-08 04:35:00
11:55 PM,19.9,10.4,67,30.47,10.0,West,8.1,-,N/A,Snow,Light Snow,260,2013-12-08 04:55:00